Date String (YYYY-MM-DD hh:mm:ss) UTC,Instrument flags,Ambient pressure (hPa),Sample flow (lpm),Bypass flow (lpm),Sample temperature (°C),Ambient temperature (°C),ASC tube jacket temperature (°C),LED temperature (°C),Box temperature (°C),Sample RH (%),Span deviation,Mass concentration (μg/m³),Mass concentration (μg/m³),Mass concentration (μg/m³)
DateTimeUTC,F1_M11,P_M11,Q1_M11,Q2_M11,T1_M11,T2_M11,T3_M11,T4_M11,T5_M11,U1_M11,ZSPAN_M11,X0_M11,X2_M11,X1_M11
2023-05-23 18:00:00,,0830.9,5.00,0.00,29.3,26.2,00.0,37.7,30.8,19.9,0003.6,0021.96,0015.66,0014.93
2023-05-23 18:01:00,,0830.9,5.00,0.00,29.3,26.6,00.0,37.6,30.8,20.2,0003.7,0021.86,0015.77,0015.01
2023-05-23 18:02:00,,0830.9,5.00,0.00,29.3,26.9,00.0,37.6,30.9,19.9,0003.7,0021.84,0015.82,0015.06
2023-05-23 18:03:00,,0830.9,5.00,0.00,29.3,27.1,00.0,37.6,30.9,20.5,0003.7,0021.84,0015.81,0015.06
2023-05-23 18:04:00,,0830.8,4.99,0.00,29.3,27.3,00.0,37.6,30.9,20.5,0003.7,0021.86,0015.80,0015.03
2023-05-23 18:05:00,,0830.9,4.99,0.00,29.3,27.5,00.0,37.6,31.0,19.7,0003.7,0021.93,0015.77,0015.01
2023-05-23 18:06:00,,0830.9,5.00,0.00,29.3,27.6,00.0,37.7,31.0,19.6,0003.8,0021.89,0015.77,0014.98
2023-05-23 18:07:00,,0830.9,5.01,0.00,29.3,27.7,00.0,37.7,31.0,19.8,0003.9,0021.72,0015.75,0014.97
2023-05-23 18:08:00,,0830.8,5.00,0.00,29.4,27.8,00.0,37.7,31.1,19.7,0003.9,0021.18,0015.67,0014.89
2023-05-23 18:09:00,,0830.8,5.00,0.00,29.4,27.9,00.0,37.7,31.1,19.7,0003.7,0021.01,0015.60,0014.85
2023-05-23 18:10:00,,0830.8,5.00,0.00,29.4,28.0,00.0,37.7,31.1,20.0,0003.6,0021.00,0015.55,0014.80
2023-05-23 18:11:00,,0830.8,4.99,0.00,29.4,28.1,00.0,37.7,31.2,19.9,0003.6,0020.93,0015.50,0014.76
2023-05-23 18:12:00,,0830.8,5.00,0.00,29.5,28.2,00.0,37.7,31.2,20.2,0003.6,0020.84,0015.44,0014.74
2023-05-23 18:13:00,,0830.9,5.01,0.00,29.5,28.2,00.0,37.7,31.2,20.2,0003.5,0020.79,0015.41,0014.74
2023-05-23 18:14:00,,0830.8,5.01,0.00,29.5,28.3,00.0,37.8,31.3,20.1,0003.5,0020.77,0015.38,0014.72
2023-05-23 18:15:00,,0830.8,5.00,0.00,29.6,28.3,00.0,37.8,31.3,19.8,0003.4,0020.80,0015.41,0014.76
2023-05-23 18:16:00,,0830.9,4.97,0.00,29.6,27.0,00.0,37.7,31.2,20.0,0003.5,0020.74,0015.47,0014.80
2023-05-23 18:17:00,,0830.7,5.01,0.00,29.5,25.4,00.0,37.7,30.9,20.2,0003.4,0020.80,0015.54,0014.89
2023-05-23 18:18:00,,0830.7,5.01,0.00,29.4,25.2,00.0,37.6,30.8,20.1,0003.4,0021.25,0015.62,0014.96
2023-05-23 18:19:00,,0830.7,5.00,0.00,29.4,25.5,00.0,37.6,30.7,19.8,0003.4,0021.54,0015.72,0015.08
2023-05-23 18:20:00,,0830.7,5.01,0.00,29.3,25.8,00.0,37.6,30.7,20.0,0003.5,0021.77,0015.87,0015.21
2023-05-23 18:21:00,,0830.7,5.00,0.00,29.3,26.2,00.0,37.6,30.8,20.8,0003.4,0022.07,0016.06,0015.37
2023-05-23 18:22:00,,0830.7,5.00,0.00,29.2,26.5,00.0,37.6,30.8,20.1,0003.4,0022.64,0016.24,0015.52
2023-05-23 18:23:00,,0830.7,5.00,0.00,29.2,26.8,00.0,37.6,30.8,20.8,0003.6,0022.74,0016.37,0015.67
2023-05-23 18:24:00,,0830.7,5.00,0.00,29.3,27.0,00.0,37.6,30.9,21.6,0003.5,0023.13,0016.48,0015.76
2023-05-23 18:25:00,,0830.7,5.00,0.00,29.3,27.3,00.0,37.6,30.9,21.0,0003.5,0023.79,0016.64,0015.91
2023-05-23 18:26:00,,0830.7,5.00,0.00,29.3,27.4,00.0,37.6,31.0,21.3,0003.5,0023.97,0016.76,0015.99
2023-05-23 18:27:00,,0830.7,4.99,0.00,29.3,27.6,00.0,37.6,31.0,21.4,0003.6,0024.06,0016.82,0016.08
2023-05-23 18:28:00,,0830.7,5.00,0.00,29.3,27.7,00.0,37.6,31.0,21.1,0003.6,0024.06,0016.85,0016.13
2023-05-23 18:29:00,,0830.7,5.00,0.00,29.4,27.8,00.0,37.6,31.1,20.6,0003.5,0024.13,0016.89,0016.18
2023-05-23 18:30:00,,0830.7,5.00,0.00,29.4,27.9,00.0,37.6,31.1,21.0,0003.5,0024.32,0016.97,0016.26
2023-05-23 18:31:00,,0830.7,5.00,0.00,29.4,28.0,00.0,37.7,31.1,20.4,0003.5,0024.47,0017.07,0016.34
2023-05-23 18:32:00,,0830.7,5.00,0.00,29.4,28.1,00.0,37.7,31.2,19.7,0003.4,0024.57,0017.18,0016.45
2023-05-23 18:33:00,,0830.7,5.01,0.00,29.5,28.2,00.0,37.7,31.2,19.5,0003.3,0024.42,0017.24,0016.54
2023-05-23 18:34:00,,0830.7,5.00,0.00,29.5,28.2,00.0,37.7,31.2,19.7,0003.2,0024.56,0017.40,0016.69
2023-05-23 18:35:00,,0830.7,4.99,0.00,29.5,28.1,00.0,37.7,31.3,19.8,0003.2,0025.01,0017.57,0016.83
2023-05-23 18:36:00,,0830.6,4.99,0.00,29.5,26.7,00.0,37.7,31.1,19.9,0003.2,0024.76,0017.76,0017.00
2023-05-23 18:37:00,,0830.6,5.01,0.00,29.5,26.1,00.0,37.6,31.0,20.5,0003.2,0025.58,0017.95,0017.21
2023-05-23 18:38:00,,0830.6,5.00,0.00,29.4,26.2,00.0,37.6,30.9,21.7,0003.1,0026.00,0018.15,0017.36
2023-05-23 18:39:00,,0830.7,4.99,0.00,29.4,26.4,00.0,37.6,30.9,22.4,0003.1,0026.35,0018.33,0017.46
2023-05-23 18:40:00,,0830.6,5.00,0.00,29.4,26.7,00.0,37.6,30.9,22.5,0003.2,0026.70,0018.51,0017.58
2023-05-23 18:41:00,,0830.6,5.00,0.00,29.4,27.0,00.0,37.6,30.9,21.7,0003.3,0026.90,0018.64,0017.67
2023-05-23 18:42:00,,0830.6,5.00,0.00,29.4,27.2,00.0,37.6,31.0,21.8,0003.2,0027.24,0018.71,0017.74
2023-05-23 18:43:00,,0830.6,5.00,0.00,29.4,27.4,00.0,37.7,31.0,21.1,0003.3,0027.57,0018.76,0017.79
2023-05-23 18:44:00,,0830.6,5.00,0.00,29.4,27.6,00.0,37.7,31.1,22.0,0003.4,0027.75,0018.84,0017.85
2023-05-23 18:45:00,,0830.6,5.00,0.00,29.4,27.8,00.0,37.7,31.1,21.7,0003.6,0027.73,0018.86,0017.87
2023-05-23 18:46:00,,0830.6,5.00,0.00,29.4,27.9,00.0,37.7,31.1,22.3,0003.6,0027.64,0018.92,0017.94
2023-05-23 18:47:00,,0830.6,5.01,0.00,29.4,28.0,00.0,37.7,31.2,22.3,0003.5,0027.93,0018.91,0017.94
2023-05-23 18:48:00,,0830.6,5.00,0.00,29.5,28.1,00.0,37.7,31.2,22.4,0003.5,0027.37,0018.87,0017.91
2023-05-23 18:49:00,,0830.6,4.98,0.00,29.5,28.2,00.0,37.7,31.3,22.4,0003.6,0027.22,0018.90,0017.95
2023-05-23 18:50:00,,0830.6,5.01,0.00,29.5,27.2,00.0,37.7,31.2,21.0,0003.5,0028.04,0019.02,0018.09
2023-05-23 18:51:00,,0830.6,4.99,0.00,29.5,25.5,00.0,37.6,30.9,21.3,0003.5,0028.01,0019.13,0018.21
2023-05-23 18:52:00,,0830.6,5.01,0.00,29.4,25.1,00.0,37.6,30.8,21.3,0003.4,0027.77,0019.24,0018.35
2023-05-23 18:53:00,,0830.5,5.01,0.00,29.3,25.3,00.0,37.5,30.7,21.7,0003.4,0028.06,0019.40,0018.51
2023-05-23 18:54:00,,0830.5,5.00,0.00,29.2,25.7,00.0,37.5,30.7,22.4,0003.4,0028.47,0019.46,0018.60
2023-05-23 18:55:00,,0830.6,4.99,0.00,29.2,26.0,00.0,37.5,30.7,22.7,0003.4,0028.54,0019.58,0018.70
2023-05-23 18:56:00,,0830.5,5.00,0.00,29.2,26.4,00.0,37.5,30.7,22.2,0003.3,0028.83,0019.72,0018.81
2023-05-23 18:57:00,,0830.7,5.00,0.00,29.2,26.7,00.0,37.5,30.8,21.9,0003.3,0028.92,0019.81,0018.93
2023-05-23 18:58:00,,0830.5,5.01,0.00,29.2,27.0,00.0,37.5,30.8,22.7,0003.3,0028.47,0019.90,0019.01
2023-05-23 18:59:00,,0830.5,5.01,0.00,29.2,27.2,00.0,37.5,30.9,22.9,0003.3,0028.57,0019.97,0019.08
